Find Starlink 3980

NORAD ID: 52611 Int'l Des: 2022-052 Owner: SPXS Country: US Constellation: starlink operational
LEOCIRCULAR

实时位置

正在加载3D地球...

关于 Starlink 3980

正在加载描述...

即将过境

Passes for default location (London). Set your location on the main map for personalized predictions.

高度历史

Loading altitude history...

两行轨道根数

1 52611U 22052P 26124.45340668 .00000634 00000-0 57944-4 0 9993
2 52611 53.2211 33.7874 0001228 86.7016 273.4117 15.08837382219208
Epoch: May 4, 2026 • Age: 17 hours

当前状态

高度 551.3 km
速度 7.59 km/s
星下点 -34.47°S, 74.24°E
发射日期 May 14, 2022
运行时间 3.9 years
类型 internet

技术详情

分类 Payload
质量 297.00 kg
干质量 275.00 kg
总质量 297.00 kg
长度 0.20 m
直径 2.80 m
跨度 9.00 m
形状 Box + pan
制造商 SPXS
平台类型 Starlink
阶段状态 In Orbit
所有者/国家 SPXS/US

Most Searched